Location: Dentlein
(49.1477°N, 10.4231°E)
Time: 23:15:34
(UTC+00:00)

Cosmos 2278 - Pass Details

Date: 23 May 2024
Orbit: 837 x 853 km, 71.1° (Epoch: 14 June)

Event Time Altitude Azimuth Distance (km) Brightness Sun altitude
Rises 00:33:17 0° 331° (NNW) 3,432 7.5 -18.1°
Reaches altitude 10° 00:35:45 10° 333° (NNW) 2,493 6.7 -17.9°
Maximum altitude 00:41:30 83° 61° (ENE) 866 3.7 -17.6°
Enters shadow 00:46:54 12° 150° (SSE) 2,359 5.7 -17.3°
